Meath Environmental Platform

Observations for Trim Patrick St

Time AQI Temp °C Hum % Pres Pa CO μg/m³ H₂S μg/m³ NO μg/m³ NO₂ μg/m³ O₃ μg/m³ SO₂ μg/m³ PM1 μg/m³ PM2.5 μg/m³ PM10 μg/m³
Saturday 8 August 2026
05:50 1 14.8 75 38,460 0.23 1.71 3.1 19.24 20.56 0 3.71 8.41 9.25
05:49 1 14.8 75 38,460 0.24 0.41 3.12 23.4 15.43 0 4.57 9.13 10.04
05:48 1 14.8 75 38,460 0.24 0 3.12 12.26 24 0 3.71 7.71 8.48
05:47 1 14.8 75 38,460 0.23 0.7 3.11 18.42 18.12 0 4.57 8.42 9.26
05:46 1 14.8 74 38,460 0.23 0.65 3.15 17.58 20.93 0 2.86 7.02 7.73
05:45 1 14.8 74 38,460 0.23 0.6 3.11 18.41 20.32 0 3.71 7.71 8.49
05:44 1 14.8 75 38,460 0.23 0 3.04 11.82 22.66 0 3.71 7.7 8.47
05:43 1 14.8 74 38,460 0.23 1.84 3.09 19.96 20.58 0 4.57 9.86 10.84
05:42 1 14.8 75 38,460 0.23 1.51 3.1 25.23 18.74 0 5.43 9.12 10.03
05:41 1 14.8 75 38,460 0.23 0 3.12 12.4 22.44 0 4.57 8.42 9.26
05:40 1 14.8 75 38,460 0.24 1.56 3.11 15.58 23.76 0 4.57 8.41 9.25
05:39 1 14.8 75 38,460 0.22 0.6 3.11 17.64 18.99 0 3.71 7.7 8.47
05:38 1 14.8 75 38,460 0.24 0 3.11 12.94 22.38 0 4.57 8.41 9.25
05:37 1 14.8 75 38,460 0.23 0.96 3.11 14.45 23.38 0 4.57 7.71 8.48
05:36 1 14.8 75 38,460 0.23 0.7 3.11 18.81 19 0 3.71 7.7 8.47
05:35 1 14.7 74 38,460 0.24 0.7 3.17 15.33 21.36 0 3.71 7.71 8.49
05:34 1 14.8 75 38,460 0.23 2.42 3.11 17.99 21.71 0 4.57 8.42 9.26
05:33 1 14.7 75 38,460 0.24 1.64 3.13 24.79 17.17 0 5.43 9.13 10.04
05:32 1 14.7 75 38,460 0.24 1.27 3.11 23 16.56 0 3.71 6.98 7.68
05:31 1 14.7 75 38,460 0.24 0 3.06 13.87 22.32 0 3.71 7.7 8.47